| time (UTC) | temp F | wind direction | speed knots | gust knots | rain 1hr in | rain 24hr in | rain mn in | humidity % | barometer mb |
| 20260505124806 | 57 | 356 | 0.9 | 1.7 | 0.00 | 0.18 | 0.00 | 71 | 1012.0 |
| 20260505122805 | 58 | 49 | 0.0 | 2.6 | 0.00 | 0.18 | 0.00 | 69 | 1013.0 |
| 20260505121806 | 58 | 338 | 0.9 | 2.6 | 0.00 | 0.18 | 0.00 | 67 | 1013.0 |
| 20260505120805 | 58 | 45 | 0.9 | 4.3 | 0.00 | 0.18 | 0.00 | 68 | 1012.0 |
| 20260505115806 | 58 | 339 | 1.7 | 4.3 | 0.00 | 0.18 | 0.00 | 66 | 1012.0 |
| 20260505114805 | 58 | 17 | 0.9 | 5.2 | 0.00 | 0.18 | 0.00 | 64 | 1012.0 |
| 20260505113805 | 59 | 1 | 1.7 | 4.3 | 0.00 | 0.18 | 0.00 | 64 | 1013.0 |
| 20260505111805 | 60 | 2 | 1.7 | 4.3 | 0.00 | 0.18 | 0.00 | 65 | 1012.0 |
| 20260505110805 | 60 | 0 | 1.7 | 4.3 | 0.00 | 0.18 | 0.00 | 65 | 1011.0 |
| 20260505101805 | 59 | 358 | 1.7 | 4.3 | 0.00 | 0.18 | 0.00 | 70 | 1012.0 |
| 20260505100805 | 59 | 0 | 1.7 | 2.6 | 0.00 | 0.18 | 0.00 | 69 | 1012.0 |
| 20260505094805 | 58 | 16 | 0.0 | 4.3 | 0.00 | 0.18 | 0.00 | 73 | 1012.0 |
| 20260505092805 | 56 | 355 | 1.7 | 4.3 | 0.00 | 0.18 | 0.00 | 77 | 1012.0 |
| 20260505091805 | 58 | 0 | 0.9 | 2.6 | 0.00 | 0.18 | 0.00 | 72 | 1012.0 |
| 20260505085806 | 57 | 341 | 0.9 | 2.6 | 0.00 | 0.18 | 0.00 | 80 | 1013.0 |
| 20260505083805 | 57 | 334 | 1.7 | 4.3 | 0.00 | 0.18 | 0.00 | 81 | 1012.0 |
| 20260505082805 | 58 | 352 | 0.9 | 4.3 | 0.00 | 0.18 | 0.00 | 77 | 1013.0 |
| 20260505081805 | 57 | 8 | 0.0 | 4.3 | 0.00 | 0.18 | 0.00 | 80 | 1013.0 |
| 20260505075805 | 55 | 31 | 0.9 | 2.6 | 0.00 | 0.18 | 0.00 | 87 | 1012.0 |
| 20260505074805 | 55 | 0 | 0.0 | 2.6 | 0.00 | 0.18 | 0.00 | 91 | 1012.0 |
| 20260505073805 | 54 | 348 | 0.0 | 2.6 | 0.00 | 0.18 | 0.00 | 97 | 1012.0 |
| 20260505072805 | 52 | 0 | 0.9 | 1.7 | 0.00 | 0.18 | 0.00 | 98 | 1012.0 |
| 20260505065805 | 50 | 0 | 0.0 | 1.7 | 0.00 | 0.18 | 0.00 | 98 | 1013.0 |
| 20260505063805 | 50 | 0 | 0.0 | 1.7 | 0.00 | 0.18 | 0.00 | 98 | 1013.0 |
| 20260505062805 | 49 | 0 | 0.9 | 2.6 | 0.00 | 0.18 | 0.00 | 98 | 1013.0 |
| 20260505061805 | 49 | 0 | 0.0 | 2.6 | 0.00 | 0.18 | 0.00 | 98 | 1013.0 |
| 20260505055806 | 49 | 0 | 0.0 | 1.7 | 0.00 | 0.18 | 0.00 | 98 | 1013.0 |
| 20260505054805 | 49 | 0 | 0.0 | 1.7 | 0.00 | 0.18 | 0.00 | 98 | 1013.0 |
| 20260505053805 | 49 | 0 | 0.0 | 1.7 | 0.00 | 0.18 | 0.00 | 98 | 1013.0 |
| 20260505035805 | 50 | 45 | 0.0 | 0.9 | 0.00 | 0.18 | 0.00 | 98 | 1013.0 |
| 20260505032805 | 51 | 45 | 0.0 | 1.7 | 0.00 | 0.18 | 0.00 | 98 | 1013.0 |
| 20260505031805 | 51 | 45 | 0.0 | 0.0 | 0.00 | 0.18 | 0.00 | 98 | 1013.0 |
| 20260505030806 | 51 | 45 | 0.0 | 0.0 | 0.00 | 0.18 | 0.00 | 98 | 1013.0 |
| 20260505023805 | 52 | 26 | 0.0 | 1.7 | 0.00 | 0.18 | 0.00 | 98 | 1013.0 |
| 20260505022806 | 52 | 22 | 0.0 | 0.9 | 0.00 | 0.18 | 0.00 | 98 | 1013.0 |
| 20260505020805 | 52 | 22 | 0.0 | 0.0 | 0.00 | 0.18 | 0.00 | 98 | 1013.0 |
| 20260505010805 | 53 | 22 | 0.0 | 0.9 | 0.00 | 0.18 | 0.00 | 98 | 1014.0 |
| 20260505005805 | 53 | 22 | 0.9 | 2.6 | 0.00 | 0.18 | 0.00 | 98 | 1014.0 |
| 20260505003805 | 53 | 0 | 0.0 | 1.7 | 0.00 | 0.18 | 0.00 | 98 | 1014.0 |
| 20260504232805 | 54 | 0 | 0.0 | 0.0 | 0.00 | 0.18 | 0.00 | 98 | 1014.0 |
| 20260504225805 | 54 | 0 | 0.0 | 1.7 | 0.00 | 0.18 | 0.18 | 98 | 1015.0 |
| 20260504223805 | 54 | 0 | 0.0 | 0.0 | 0.00 | 0.18 | 0.18 | 98 | 1014.0 |
| 20260504222805 | 54 | 0 | 0.0 | 0.0 | 0.00 | 0.18 | 0.18 | 98 | 1013.0 |
| 20260504220805 | 54 | 0 | 0.0 | 0.0 | 0.00 | 0.18 | 0.18 | 98 | 1013.0 |
| 20260504212805 | 55 | 0 | 0.0 | 0.0 | 0.00 | 0.18 | 0.18 | 98 | 1013.0 |
| 20260504211805 | 55 | 0 | 0.0 | 0.0 | 0.00 | 0.18 | 0.18 | 98 | 1013.0 |
| 20260504204804 | 55 | 0 | 0.0 | 0.0 | 0.00 | 0.18 | 0.18 | 98 | 1013.0 |
| 20260504203804 | 55 | 0 | 0.0 | 0.0 | 0.00 | 0.18 | 0.18 | 98 | 1013.0 |
| 20260504202805 | 55 | 0 | 0.0 | 0.0 | 0.01 | 0.18 | 0.18 | 98 | 1013.0 |
| 20260504201804 | 55 | 0 | 0.0 | 0.0 | 0.01 | 0.18 | 0.18 | 98 | 1013.0 |
| 20260504195806 | 55 | 0 | 0.0 | 0.0 | 0.09 | 0.18 | 0.18 | 98 | 1014.0 |
| 20260504193805 | 55 | 0 | 0.0 | 0.9 | 0.09 | 0.18 | 0.18 | 98 | 1015.0 |
| 20260504192806 | 55 | 0 | 0.0 | 1.7 | 0.09 | 0.17 | 0.17 | 98 | 1014.0 |
| 20260504185806 | 56 | 0 | 0.0 | 0.0 | 0.01 | 0.09 | 0.09 | 98 | 1014.0 |
| 20260504183806 | 56 | 0 | 0.0 | 0.9 | 0.00 | 0.08 | 0.08 | 98 | 1014.0 |
| 20260504175806 | 57 | 315 | 0.0 | 0.0 | 0.01 | 0.08 | 0.08 | 98 | 1014.0 |
| 20260504174806 | 57 | 315 | 0.0 | 0.0 | 0.02 | 0.08 | 0.08 | 98 | 1014.0 |
| 20260504173806 | 57 | 0 | 0.0 | 0.0 | 0.03 | 0.08 | 0.08 | 98 | 1013.0 |
| 20260504150806 | 64 | 0 | 0.0 | 0.0 | 0.00 | 0.00 | 0.00 | 66 | 1012.0 |
| 20260504140805 | 64 | 321 | 0.0 | 1.7 | 0.00 | 0.00 | 0.00 | 65 | 1013.0 |